Tracking 29892 objects as of 21-Nov-2024
HD Live streaming from Space Station
objects crossing your sky now

SCOUT B DEB

Track SCOUT B DEB now!
10-day predictions


NORAD ID: 37862
Int'l Code: 1965-063AE
Perigee: 886.7 km
Apogee: 2,159.7 km
Inclination: 69.1 °
Period: 116.3 minutes
Semi major axis: 7894 km
RCS: 0.0554 m2 (small)
Launch date: August 10, 1965
Source: United States (US)
Launch site: WALLOPS ISLAND (WLPIS)

Note: This is SATELLITE DEBRIS
Your satellite tracking list
Your tracking list is empty




NASA's NSSDC Master Catalog

Two Line Element Set (TLE):
1 37862U 65063AE  24326.14092841  .00002560  00000-0  64662-2 0  9991
2 37862  69.1482  15.6283 0806330 110.1925 258.7619 12.37775987678838
Source of the keplerian elements: AFSPC